Regional Weather Roundup
Issued by NWS

Home | Current Version | Previous Version | Graphics & Text | Print | Product List | Glossary On
Versions: 1 2 3 4 5 6 7 8 9 10 11 12 13 14 15 16 17 18 19 20 21 22 23 24 25 26 27 28 29 30 31 32 33 34 35 36 37 38 39 40 41 42 43 44 45 46 47 48 49 50
000
ASUS43 KTOP 240859
RWRKS

WEATHER ROUNDUP FOR KANSAS
NATIONAL WEATHER SERVICE GOODLAND KS
400 AM CDT FRI OCT 24 2014

NOTE:  "FAIR" INDICATES FEW OR NO CLOUDS BELOW 12,000 FEET WITH NO
SIGNIFICANT WEATHER AND/OR OBSTRUCTIONS TO VISIBILITY.

KSZ001>006-013>018-027>032-041>047-241000-
NORTHWEST KANSAS

CITY           SKY/WX    TMP DP  RH WIND       PRES   REMARKS
GOODLAND       CLEAR     54  47  77 SW12      30.07F
HAYS           CLEAR     55  52  88 S5        30.02F
HILL CITY      PTCLDY    57  54  89 W7        30.02S
RUSSELL        CLEAR     59  57  93 S12       30.00F
$$

KSZ061>065-074>080-084>089-241000-
SOUTHWEST KANSAS

CITY           SKY/WX    TMP DP  RH WIND       PRES   REMARKS
DODGE CITY     PTCLDY    60  56  86 SW9       30.06F
ELKHART          N/A     56  49  78 W7          N/A
GARDEN CITY    CLEAR     55  53  93 SW6       30.06F FOG
GREAT BEND     CLEAR     55  54  94 S7        30.04F
LIBERAL        CLEAR     55  50  82 SW5       30.09F
$$

KSZ066>073-081>083-090>101-241000-
SOUTHEAST KANSAS

CITY           SKY/WX    TMP DP  RH WIND       PRES   REMARKS
CHANUTE        PTCLDY    54  53  97 SE6       30.09F FOG
COFFEYVILLE    PTCLDY    54  52  93 SE5       30.10F
HUTCHINSON     CLEAR     58  55  90 S6        30.06S FOG
NEWTON         CLEAR     55  52  88 S7        30.07F
PARSONS        PTCLDY    56  54  93 S3        30.11F
WICHITA INTL   PTCLDY    57  55  93 S7        30.05F
WICHITA JABRA  CLEAR     56  55  97 S6        30.06F
WINFIELD       CLEAR     58  56  93 S7        30.08F
$$

KSZ007>012-019>026-033>040-048>060-102>105-241000-
NORTHEAST KANSAS

CITY           SKY/WX    TMP DP  RH WIND       PRES   REMARKS
CONCORDIA      CLEAR     60  59  96 S12       30.00F FOG
EMPORIA        CLOUDY    58  57  97 S12       30.06F FOG
LAWRENCE       CLOUDY    57  56  96 S5        30.06F FOG
MANHATTAN      CLEAR     57  56  96 S6        30.02F
OLATHE IND     CLOUDY    56  56 100 S13       30.08F FOG
OLATHE EXE     CLOUDY    56  56 100 S9        30.07F FOG
SALINA         CLEAR     60  57  89 S10       30.03F FOG
TOPEKA BILLARD CLOUDY    59  58  96 S8        30.06S FOG
TOPEKA FORBES  CLOUDY    58  57  97 S10       30.05F FOG
$$



USA.gov is the U.S. government's official web portal to all federal, state and local government web resources and services.